Home > Weather > Busan > Past weeks

Flag for South Korea Past Weather in Busan, South Korea — Yesterday and Last 2 Weeks

Now
86 °F

Scattered clouds.


Feels Like: 102 °F
Forecast: 80 / 91 °F
Wind: 8 mph from South

Location: Pusan / Kimhae International Airport

Current Time: Jul 29, 2016 at 9:22:56 AM

Latest Report: Jul 29, 2016 at 9:00 AM


Visibility: 6 mi

Pressure: 29.83 "Hg

Humidity: 84%

Dew Point: 81 °F

Location of BusanLocation

Past Weather in Busan — Graph

°F

Busan Temperature Yesterday

Maximum temperature yesterday: 90 °F (at 2:00 PM)
Minimum temperature yesterday: 81 °F (at 1:00 AM)
Average temperature yesterday: 84 °F

High & Low Weather Summary for the Past Weeks

 TemperatureHumidityPressure
High90 °F (Jul 14, 2:00 PM)100% (Jul 16, 8:00 PM)29.95 "Hg (Jul 16, 8:00 PM)
Low70 °F (Jul 17, 6:01 AM)49% (Jul 14, 2:00 PM)29.50 "Hg (Jul 14, 2:00 PM)
Average80 °F78%29.78 "Hg
* Reported Jul 14 8:00 AM — Jul 29 8:00 AM, Busan, Weather by CustomWeather, © 2016

Note: Actual official high and low records may vary slightly from our data, if they occured in-between our weather recording intervals... More about our weather records

Advertising

Busan Weather History for the Previous 24 Hours

Scroll right to see more
 ConditionsComfort  
Time TempWeatherWind HumidityBarometerVisibility
8:00 AM
Fri, Jul 29
84 °FPartly sunny.6 mph84%29.83 "Hg6 mi
7:00 AM81 °FPartly sunny.7 mph94%29.80 "Hg6 mi
6:00 AM79 °FPassing clouds.6 mph94%29.80 "Hg6 mi
5:00 AM81 °FPassing clouds.6 mph94%29.80 "Hg4 mi
4:00 AM81 °FPassing clouds.5 mph94%29.80 "Hg4 mi
3:00 AM81 °FPassing clouds.8 mph94%29.80 "Hg5 mi
2:00 AM82 °FPassing clouds.3 mph89%29.80 "Hg6 mi
1:00 AM81 °FPassing clouds.2 mph94%29.80 "Hg6 mi
12:00 AM82 °FPassing clouds.2 mph84%29.80 "Hg6 mi
11:00 PM
Thu, Jul 28
82 °FPassing clouds.6 mph84%29.80 "HgN/A
10:00 PM82 °FPassing clouds.6 mph89%29.80 "HgN/A
9:00 PM82 °FPassing clouds.9 mph89%29.77 "HgN/A
8:00 PM82 °FPassing clouds.12 mph84%29.74 "HgN/A
7:00 PM82 °FScattered clouds.12 mph89%29.74 "HgN/A
6:00 PM84 °FScattered clouds.13 mph84%29.71 "HgN/A
5:00 PM86 °FScattered clouds.22 mph84%29.71 "Hg6 mi
4:00 PM86 °FScattered clouds.22 mph84%29.71 "Hg6 mi
3:00 PM88 °FScattered clouds.22 mph75%29.71 "HgN/A
2:00 PM90 °FScattered clouds.15 mph71%29.71 "HgN/A
1:00 PM88 °FScattered clouds.15 mph75%29.71 "HgN/A
12:00 PM86 °FScattered clouds.15 mph84%29.74 "HgN/A
11:00 AM86 °FScattered clouds.14 mph79%29.74 "HgN/A
10:00 AM86 °FScattered clouds.10 mph79%29.74 "HgN/A
9:00 AM82 °FScattered clouds.9 mph89%29.74 "HgN/A
Weather by CustomWeather, © 2016

See weather overviewHow to use our weather pages